Year,Month,Day,Hour,Minute,Value (Times are PST for windspeed in km/hr)
2010,04,02,00,00,12.40
2010,04,02,00,01,12.90
2010,04,02,00,05,10.70
2010,04,02,00,06,9.30
2010,04,02,00,07,14.50
2010,04,02,00,08,16.80
2010,04,02,00,09,24.50
2010,04,02,00,10,15.20
2010,04,02,00,11,10.80
2010,04,02,00,12,9.50
2010,04,02,00,13,13.00
2010,04,02,00,14,11.20
2010,04,02,00,15,10.80
2010,04,02,00,16,11.40
2010,04,02,00,17,14.70
2010,04,02,00,18,13.10
2010,04,02,00,19,12.50
2010,04,02,00,20,8.50
2010,04,02,00,21,12.70
2010,04,02,00,22,8.20
2010,04,02,00,23,11.80
2010,04,02,00,24,10.60
2010,04,02,00,25,12.60
2010,04,02,00,26,12.50
2010,04,02,00,27,11.80
2010,04,02,00,28,18.40
2010,04,02,00,29,9.90
2010,04,02,00,30,8.90
2010,04,02,00,31,15.60
2010,04,02,00,32,8.20
2010,04,02,00,33,8.70
2010,04,02,00,34,13.90
2010,04,02,00,35,11.60
2010,04,02,00,36,13.80
2010,04,02,00,37,9.30
2010,04,02,00,38,11.20
2010,04,02,00,39,13.70
2010,04,02,00,40,10.50
2010,04,02,00,41,9.30
2010,04,02,00,42,9.20
2010,04,02,00,43,15.10
2010,04,02,00,44,14.40
2010,04,02,00,45,13.60
2010,04,02,00,46,8.00
2010,04,02,00,47,8.60
2010,04,02,00,48,13.30
2010,04,02,00,49,12.70
2010,04,02,00,50,11.40
2010,04,02,00,51,10.40
2010,04,02,00,52,6.00
2010,04,02,00,53,14.60
2010,04,02,00,54,12.50
2010,04,02,00,55,14.10
2010,04,02,00,56,10.20
2010,04,02,00,57,9.60
2010,04,02,00,58,13.30
2010,04,02,00,59,14.40
2010,04,02,01,00,13.10
2010,04,02,01,01,9.30
2010,04,02,01,02,15.10
2010,04,02,01,03,15.20
2010,04,02,01,04,11.60
2010,04,02,01,05,15.00
2010,04,02,01,06,11.50
2010,04,02,01,07,14.30
2010,04,02,01,08,7.30
2010,04,02,01,09,17.00
2010,04,02,01,10,14.60
2010,04,02,01,11,16.00
2010,04,02,01,12,17.70
2010,04,02,01,13,14.30
2010,04,02,01,14,12.50
2010,04,02,01,15,21.10
2010,04,02,01,16,13.00
2010,04,02,01,17,15.30
2010,04,02,01,18,11.80
2010,04,02,01,19,12.20
2010,04,02,01,20,6.70
2010,04,02,01,21,9.40
2010,04,02,01,22,12.80
2010,04,02,01,23,15.20
2010,04,02,01,24,17.70
2010,04,02,01,25,10.30
2010,04,02,01,26,9.10
2010,04,02,01,27,8.80
2010,04,02,01,28,9.10
2010,04,02,01,29,13.60
2010,04,02,01,30,13.00
2010,04,02,01,31,13.80
2010,04,02,01,32,14.30
2010,04,02,01,33,15.60
2010,04,02,01,34,11.60
2010,04,02,01,35,9.30
2010,04,02,01,36,7.60
2010,04,02,01,37,10.20
2010,04,02,01,38,9.30
2010,04,02,01,39,10.30
2010,04,02,01,40,8.50
2010,04,02,01,41,9.50
2010,04,02,01,42,9.70
2010,04,02,01,43,11.10
2010,04,02,01,44,12.00
2010,04,02,01,45,7.10
2010,04,02,01,46,8.00
2010,04,02,01,47,9.30
2010,04,02,01,48,8.00
2010,04,02,01,49,15.50
2010,04,02,01,50,9.10
2010,04,02,01,51,8.30
2010,04,02,01,52,7.80
2010,04,02,01,53,11.60
2010,04,02,01,54,12.00
2010,04,02,01,55,9.00
2010,04,02,01,56,13.60
2010,04,02,01,57,13.60
2010,04,02,01,58,13.50
2010,04,02,01,59,8.80
2010,04,02,02,00,10.10
2010,04,02,02,01,11.90
2010,04,02,02,02,12.50
2010,04,02,02,03,10.00
2010,04,02,02,04,12.50
2010,04,02,02,05,14.80
2010,04,02,02,06,9.20
2010,04,02,02,07,10.20
2010,04,02,02,08,12.00
2010,04,02,02,09,10.30
2010,04,02,02,10,13.10
2010,04,02,02,11,16.60
2010,04,02,02,12,14.50
2010,04,02,02,13,9.90
2010,04,02,02,14,9.90
2010,04,02,02,15,14.40
2010,04,02,02,16,9.50
2010,04,02,02,17,14.00
2010,04,02,02,18,8.40
2010,04,02,02,19,10.90
2010,04,02,02,20,14.00
2010,04,02,02,21,6.40
2010,04,02,02,22,10.90
2010,04,02,02,23,13.40
2010,04,02,02,24,14.90
2010,04,02,02,25,11.20
2010,04,02,02,26,10.70
2010,04,02,02,27,11.00
2010,04,02,02,28,7.20
2010,04,02,02,29,9.30
2010,04,02,02,30,7.70
2010,04,02,02,31,9.30
2010,04,02,02,32,9.50
2010,04,02,02,33,12.40
2010,04,02,02,34,10.50
2010,04,02,02,35,20.30
2010,04,02,02,36,9.50
2010,04,02,02,37,10.00
2010,04,02,02,38,8.40
2010,04,02,02,39,9.70
2010,04,02,02,40,15.70
2010,04,02,02,41,8.30
2010,04,02,02,42,12.40
2010,04,02,02,43,8.30
2010,04,02,02,44,8.60
2010,04,02,02,45,10.60
2010,04,02,02,46,13.10
2010,04,02,02,47,15.50
2010,04,02,02,48,25.90
2010,04,02,02,49,14.30
2010,04,02,02,50,15.00
2010,04,02,02,51,9.90
2010,04,02,02,52,15.40
2010,04,02,02,53,15.70
2010,04,02,02,54,10.90
2010,04,02,02,55,12.20
2010,04,02,02,56,20.20
2010,04,02,02,57,19.10
2010,04,02,02,58,13.60
2010,04,02,02,59,13.80
2010,04,02,03,00,13.10
2010,04,02,03,01,16.60
2010,04,02,03,02,15.20
2010,04,02,03,03,11.00
2010,04,02,03,04,9.00
2010,04,02,03,05,17.90
2010,04,02,03,06,14.20
2010,04,02,03,07,8.00
2010,04,02,03,08,11.50
2010,04,02,03,09,11.10
2010,04,02,03,10,9.70
2010,04,02,03,11,10.90
2010,04,02,03,12,12.90
2010,04,02,03,13,10.20
2010,04,02,03,14,13.00
2010,04,02,03,15,15.10
2010,04,02,03,16,13.00
2010,04,02,03,17,5.70
2010,04,02,03,18,11.60
2010,04,02,03,19,14.60
2010,04,02,03,20,10.20
2010,04,02,03,21,16.20
2010,04,02,03,22,15.60
2010,04,02,03,23,12.80
2010,04,02,03,24,14.00
2010,04,02,03,25,14.20
2010,04,02,03,26,12.20
2010,04,02,03,27,16.40
2010,04,02,03,28,10.10
2010,04,02,03,29,7.80
2010,04,02,03,30,13.30
2010,04,02,03,31,10.60
2010,04,02,03,32,10.00
2010,04,02,03,33,21.50
2010,04,02,03,34,13.20
2010,04,02,03,35,7.80
2010,04,02,03,36,10.20
2010,04,02,03,37,9.40
2010,04,02,03,38,11.90
2010,04,02,03,39,12.80
2010,04,02,03,40,10.10
2010,04,02,03,41,8.60
2010,04,02,03,42,10.30
2010,04,02,03,43,11.60
2010,04,02,03,44,14.50
2010,04,02,03,45,18.60
2010,04,02,03,46,13.10
2010,04,02,03,47,11.20
2010,04,02,03,48,12.00
2010,04,02,03,49,15.20
2010,04,02,03,50,9.50
2010,04,02,03,51,9.90
2010,04,02,03,52,10.10
2010,04,02,03,53,7.50
2010,04,02,03,54,14.20
2010,04,02,03,55,7.10
2010,04,02,03,56,5.60
2010,04,02,03,57,13.30
2010,04,02,03,58,12.20
2010,04,02,03,59,12.20
2010,04,02,04,00,14.40
2010,04,02,04,01,13.40
2010,04,02,04,02,17.50
2010,04,02,04,03,15.50
2010,04,02,04,04,11.50
2010,04,02,04,05,11.90
2010,04,02,04,06,11.70
2010,04,02,04,07,7.50
2010,04,02,04,08,10.70
2010,04,02,04,09,10.20
2010,04,02,04,10,10.50
2010,04,02,04,11,14.40
2010,04,02,04,12,14.80
2010,04,02,04,13,16.80
2010,04,02,04,14,6.30
2010,04,02,04,15,16.70
2010,04,02,04,16,10.20
2010,04,02,04,17,11.40
2010,04,02,04,18,16.20
2010,04,02,04,19,12.60
2010,04,02,04,20,14.40
2010,04,02,04,21,6.80
2010,04,02,04,22,15.20
2010,04,02,04,23,12.40
2010,04,02,04,24,11.80
2010,04,02,04,25,12.00
2010,04,02,04,26,9.70
2010,04,02,04,27,10.00
2010,04,02,04,28,9.20
2010,04,02,04,29,9.50
2010,04,02,04,30,9.30
2010,04,02,04,31,10.30
2010,04,02,04,32,15.10
2010,04,02,04,33,14.70
2010,04,02,04,34,10.90
2010,04,02,04,35,10.20
2010,04,02,04,36,14.00
2010,04,02,04,37,15.30
2010,04,02,04,38,12.50
2010,04,02,04,39,5.90
2010,04,02,04,40,7.40
2010,04,02,04,41,15.50
2010,04,02,04,42,12.50
2010,04,02,04,43,12.40
2010,04,02,04,44,13.80
2010,04,02,04,45,9.50
2010,04,02,04,46,10.90
2010,04,02,04,47,12.00
2010,04,02,04,48,17.40
2010,04,02,04,49,7.40
2010,04,02,04,50,7.50
2010,04,02,04,51,7.40
2010,04,02,04,52,10.00
2010,04,02,04,53,16.00
2010,04,02,04,54,15.50
2010,04,02,04,55,12.20
2010,04,02,04,56,13.50
2010,04,02,04,57,16.10
2010,04,02,04,58,17.80
2010,04,02,04,59,12.20
2010,04,02,05,00,10.00
2010,04,02,05,01,12.60
2010,04,02,05,02,13.80
2010,04,02,05,03,12.70
2010,04,02,05,04,10.90
2010,04,02,05,05,13.10
2010,04,02,05,06,14.10
2010,04,02,05,07,4.80
2010,04,02,05,08,12.50
2010,04,02,05,09,12.50
2010,04,02,05,10,16.90
2010,04,02,05,11,6.30
2010,04,02,05,12,5.50
2010,04,02,05,13,14.10
2010,04,02,05,14,13.00
2010,04,02,05,15,6.40
2010,04,02,05,16,14.30
2010,04,02,05,17,9.30
2010,04,02,05,18,9.60
2010,04,02,05,19,11.60
2010,04,02,05,20,8.80
2010,04,02,05,21,11.50
2010,04,02,05,22,11.00
2010,04,02,05,23,16.60
2010,04,02,05,24,10.00
2010,04,02,05,25,15.10
2010,04,02,05,26,11.10
2010,04,02,05,27,15.20
2010,04,02,05,28,13.60
2010,04,02,05,29,12.40
2010,04,02,05,30,28.90
2010,04,02,05,31,14.40
2010,04,02,05,32,12.60
2010,04,02,05,33,14.60
2010,04,02,05,34,14.40
2010,04,02,05,35,14.70
2010,04,02,05,36,14.30
2010,04,02,05,37,9.70
2010,04,02,05,38,20.30
2010,04,02,05,39,18.20
2010,04,02,05,40,12.90
2010,04,02,05,41,11.30
2010,04,02,05,42,12.20
2010,04,02,05,43,21.30
2010,04,02,05,44,14.10
2010,04,02,05,45,11.90
2010,04,02,05,46,9.60
2010,04,02,05,47,10.60
2010,04,02,05,48,16.80
2010,04,02,05,49,8.80
2010,04,02,05,50,13.00
2010,04,02,05,51,16.10
2010,04,02,05,52,12.60
2010,04,02,05,53,13.60
2010,04,02,05,54,14.40
2010,04,02,05,55,8.40
2010,04,02,05,56,12.60
2010,04,02,05,57,10.50
2010,04,02,05,58,15.10
2010,04,02,05,59,6.00
2010,04,02,06,00,14.80
2010,04,02,06,01,13.70
2010,04,02,06,02,8.40
2010,04,02,06,03,9.70
2010,04,02,06,04,6.60
2010,04,02,06,05,14.60
2010,04,02,06,06,16.90
2010,04,02,06,07,18.80
2010,04,02,06,08,12.10
2010,04,02,06,09,8.00
2010,04,02,06,10,10.80
2010,04,02,06,11,13.40
2010,04,02,06,12,13.90
2010,04,02,06,13,7.10
2010,04,02,06,14,15.80
2010,04,02,06,15,18.50
2010,04,02,06,16,16.70
2010,04,02,06,17,13.60
2010,04,02,06,18,7.50
2010,04,02,06,19,16.00
2010,04,02,06,20,15.90
2010,04,02,06,21,16.20
2010,04,02,06,22,15.30
2010,04,02,06,23,18.50
2010,04,02,06,24,12.00
2010,04,02,06,25,10.20
2010,04,02,06,26,9.10
2010,04,02,06,27,18.30
2010,04,02,06,28,14.40
2010,04,02,06,29,13.90
2010,04,02,06,30,12.20
2010,04,02,06,31,9.10
2010,04,02,06,32,11.30
2010,04,02,06,33,13.70
2010,04,02,06,34,14.70
2010,04,02,06,35,13.70
2010,04,02,06,36,10.80
2010,04,02,06,37,7.50
2010,04,02,06,38,7.20
2010,04,02,06,39,8.10
2010,04,02,06,40,13.10
2010,04,02,06,41,13.60
2010,04,02,06,42,11.00
2010,04,02,06,43,13.90
2010,04,02,06,44,19.80
2010,04,02,06,45,9.10
2010,04,02,06,46,11.70
2010,04,02,06,47,19.70
2010,04,02,06,48,12.50
2010,04,02,06,49,12.70
2010,04,02,06,50,11.50
2010,04,02,06,51,13.20
2010,04,02,06,52,20.60
2010,04,02,06,53,17.90
2010,04,02,06,54,4.70
2010,04,02,06,55,14.80
2010,04,02,06,56,15.60
2010,04,02,06,57,14.20
2010,04,02,06,58,16.10
2010,04,02,06,59,21.90
2010,04,02,07,00,18.00
2010,04,02,07,01,24.60
2010,04,02,07,02,16.80
2010,04,02,07,03,15.30
2010,04,02,07,04,19.80
2010,04,02,07,05,17.00
2010,04,02,07,06,24.10
2010,04,02,07,07,18.00
2010,04,02,07,08,18.70
2010,04,02,07,09,12.60
2010,04,02,07,10,13.80
2010,04,02,07,11,15.50
2010,04,02,07,12,20.00
2010,04,02,07,13,13.40
2010,04,02,07,14,17.70
2010,04,02,07,15,12.60
2010,04,02,07,16,9.60
2010,04,02,07,17,15.90
2010,04,02,07,18,11.60
2010,04,02,07,19,13.70
2010,04,02,07,20,12.80
2010,04,02,07,21,6.90
2010,04,02,07,22,11.30
2010,04,02,07,23,19.70
2010,04,02,07,24,10.30
2010,04,02,07,25,10.60
2010,04,02,07,26,9.70
2010,04,02,07,27,16.10
2010,04,02,07,28,21.50
2010,04,02,07,29,15.00
2010,04,02,07,30,25.80
2010,04,02,07,31,19.10
2010,04,02,07,32,24.90
2010,04,02,07,33,15.70
2010,04,02,07,34,19.10
2010,04,02,07,35,19.60
2010,04,02,07,36,22.80
2010,04,02,07,37,21.30
2010,04,02,07,38,17.10
2010,04,02,07,39,19.70
2010,04,02,07,40,12.10
2010,04,02,07,41,17.50
2010,04,02,07,42,23.10
2010,04,02,07,43,9.70
2010,04,02,07,44,14.00
2010,04,02,07,45,16.30
2010,04,02,07,46,21.40
2010,04,02,07,47,16.80
2010,04,02,07,48,18.80
2010,04,02,07,49,16.00
2010,04,02,07,50,18.00
2010,04,02,07,51,23.50
2010,04,02,07,52,25.00
2010,04,02,07,53,25.70
2010,04,02,07,54,27.00
2010,04,02,07,55,29.50
2010,04,02,07,56,28.70
2010,04,02,07,57,20.50
2010,04,02,07,58,18.20
2010,04,02,07,59,15.70
2010,04,02,08,00,21.00
2010,04,02,08,01,24.60
2010,04,02,08,02,20.40
2010,04,02,08,03,23.80
2010,04,02,08,04,31.90
2010,04,02,08,05,19.20
2010,04,02,08,06,25.10
2010,04,02,08,07,25.30
2010,04,02,08,08,25.30
2010,04,02,08,09,24.90
2010,04,02,08,10,20.40
2010,04,02,08,11,30.40
2010,04,02,08,12,36.60
2010,04,02,08,13,21.50
2010,04,02,08,14,26.80
2010,04,02,08,15,27.50
2010,04,02,08,16,29.00
2010,04,02,08,17,19.20
2010,04,02,08,18,31.60
2010,04,02,08,19,16.40
2010,04,02,08,20,21.20
2010,04,02,08,21,22.50
2010,04,02,08,22,17.70
2010,04,02,08,23,21.90
2010,04,02,08,24,26.40
2010,04,02,08,25,26.40
2010,04,02,08,26,24.50
2010,04,02,08,27,31.70
2010,04,02,08,28,25.30
2010,04,02,08,29,27.90
2010,04,02,08,30,31.20
2010,04,02,08,31,34.60
2010,04,02,08,32,34.70
2010,04,02,08,33,32.00
2010,04,02,08,34,25.00
2010,04,02,08,35,36.90
2010,04,02,08,36,31.40
2010,04,02,08,37,26.20
2010,04,02,08,38,24.10
2010,04,02,12,49,30.90
2010,04,02,12,50,30.00
2010,04,02,12,51,29.00
2010,04,02,12,52,14.00
2010,04,02,12,53,22.40
2010,04,02,12,54,25.50
2010,04,02,12,55,23.10
2010,04,02,12,56,24.50
2010,04,02,12,57,21.40
2010,04,02,12,58,20.90
2010,04,02,12,59,31.10
2010,04,02,13,00,28.50
2010,04,02,13,01,22.70
2010,04,02,13,02,24.90
2010,04,02,13,03,24.90
2010,04,02,13,04,20.70
2010,04,02,13,05,25.00
2010,04,02,13,06,21.10
2010,04,02,13,07,19.40
2010,04,02,13,08,18.00
2010,04,02,13,09,21.10
2010,04,02,13,10,19.70
2010,04,02,13,11,7.40
2010,04,02,13,12,17.50
2010,04,02,13,13,22.10
2010,04,02,13,14,29.60
2010,04,02,13,15,24.50
2010,04,02,13,16,31.80
2010,04,02,13,17,25.40
2010,04,02,13,18,18.40
2010,04,02,13,19,23.80
2010,04,02,13,20,27.20
2010,04,02,13,21,28.70
2010,04,02,13,22,29.70
2010,04,02,13,23,29.90
2010,04,02,13,24,14.80
2010,04,02,13,25,22.60
2010,04,02,13,26,15.40
2010,04,02,13,27,27.70
2010,04,02,13,28,27.70
2010,04,02,13,29,33.50
2010,04,02,13,30,27.90
2010,04,02,13,31,24.10
2010,04,02,13,32,27.60
2010,04,02,13,33,26.20
2010,04,02,13,34,25.80
2010,04,02,13,35,34.20
2010,04,02,13,36,31.20
2010,04,02,13,37,27.50
2010,04,02,13,38,18.90
2010,04,02,13,39,21.00
2010,04,02,13,40,26.90
2010,04,02,13,41,35.00
2010,04,02,13,42,25.40
2010,04,02,13,43,27.10
2010,04,02,13,44,26.70
2010,04,02,13,45,36.50
2010,04,02,13,46,22.60
2010,04,02,13,47,24.40
2010,04,02,13,48,24.10
2010,04,02,13,49,23.60
2010,04,02,13,50,33.20
2010,04,02,13,51,28.60
2010,04,02,13,52,28.70
2010,04,02,13,53,25.70
2010,04,02,13,54,21.10
2010,04,02,13,55,20.20
2010,04,02,13,56,12.80
2010,04,02,13,57,27.10
2010,04,02,13,58,24.40
2010,04,02,13,59,20.20
2010,04,02,14,00,12.30
2010,04,02,14,01,21.00
2010,04,02,14,02,25.20
2010,04,02,14,03,20.80
2010,04,02,14,04,33.80
2010,04,02,14,05,24.70
2010,04,02,14,06,23.50
2010,04,02,14,07,23.00
2010,04,02,14,08,22.90
2010,04,02,14,09,14.60
2010,04,02,14,10,23.00
2010,04,02,14,11,24.90
2010,04,02,14,12,22.40
2010,04,02,14,13,29.70
2010,04,02,14,14,21.90
2010,04,02,14,15,16.90
2010,04,02,14,16,19.80
2010,04,02,14,17,18.60
2010,04,02,14,18,24.00
2010,04,02,14,19,15.90
2010,04,02,14,20,23.00
2010,04,02,14,21,17.50
2010,04,02,14,22,26.20
2010,04,02,14,23,18.90
2010,04,02,14,24,23.10
2010,04,02,14,25,16.30
2010,04,02,14,26,21.40
2010,04,02,14,27,29.00
2010,04,02,14,28,25.40
2010,04,02,14,29,23.00
2010,04,02,14,30,27.50
2010,04,02,14,31,25.80
2010,04,02,14,32,24.50
2010,04,02,14,33,23.80
2010,04,02,14,34,25.70
2010,04,02,14,35,28.50
2010,04,02,14,36,39.60
2010,04,02,14,37,23.30
2010,04,02,14,38,23.20
2010,04,02,14,39,30.30
2010,04,02,14,40,30.70
2010,04,02,14,41,19.00
2010,04,02,14,42,21.80
2010,04,02,14,43,23.60
2010,04,02,14,44,23.30
2010,04,02,14,45,28.80
2010,04,02,14,46,27.80
2010,04,02,14,47,29.10
2010,04,02,14,48,37.50
2010,04,02,14,49,25.60
2010,04,02,14,50,22.60
2010,04,02,14,51,25.60
2010,04,02,14,52,28.20
2010,04,02,14,53,30.10
2010,04,02,14,54,16.70
2010,04,02,14,55,31.60
2010,04,02,14,56,28.00
2010,04,02,14,57,34.80
2010,04,02,14,58,33.30
2010,04,02,14,59,24.40
2010,04,02,15,00,28.80
2010,04,02,15,01,29.50
2010,04,02,15,02,24.00
2010,04,02,15,03,21.70
2010,04,02,15,04,20.70
2010,04,02,15,05,31.80
2010,04,02,15,06,33.70
2010,04,02,15,07,31.30
2010,04,02,15,08,20.50
2010,04,02,15,09,17.10
2010,04,02,15,10,22.70
2010,04,02,15,11,17.80
2010,04,02,15,12,25.70
2010,04,02,15,13,35.10
2010,04,02,15,14,28.30
2010,04,02,15,15,20.20
2010,04,02,15,16,21.30
2010,04,02,15,17,31.80
2010,04,02,15,18,19.90
2010,04,02,15,19,20.30
2010,04,02,15,20,23.20
2010,04,02,15,21,26.70
2010,04,02,15,22,25.50
2010,04,02,15,23,35.40
2010,04,02,15,24,27.20
2010,04,02,15,25,22.60
2010,04,02,15,26,29.80
2010,04,02,15,27,24.60
2010,04,02,15,28,20.20
2010,04,02,15,29,25.70
2010,04,02,15,30,36.30
2010,04,02,15,31,20.30
2010,04,02,15,32,23.50
2010,04,02,15,33,29.40
2010,04,02,15,34,18.80
2010,04,02,15,35,13.30
2010,04,02,15,36,15.20
2010,04,02,15,37,12.80
2010,04,02,15,38,25.70
2010,04,02,15,39,26.60
2010,04,02,15,40,20.00
2010,04,02,15,41,19.30
2010,04,02,15,42,21.30
2010,04,02,15,43,20.60
2010,04,02,15,44,13.60
2010,04,02,15,45,10.10
2010,04,02,15,46,12.60
2010,04,02,15,47,21.90
2010,04,02,15,48,18.50
2010,04,02,15,49,26.60
2010,04,02,15,50,15.30
2010,04,02,15,51,19.20
2010,04,02,15,52,18.40
2010,04,02,15,53,22.50
2010,04,02,15,54,22.20
2010,04,02,15,55,24.10
2010,04,02,15,56,8.60
2010,04,02,15,57,10.80
2010,04,02,15,58,23.30
2010,04,02,15,59,16.90
2010,04,02,16,00,15.20
2010,04,02,16,01,15.50
2010,04,02,16,02,23.50
2010,04,02,16,03,18.80
2010,04,02,16,04,21.30
2010,04,02,16,05,21.50
2010,04,02,16,06,14.50
2010,04,02,16,07,14.80
2010,04,02,16,08,25.70
2010,04,02,16,09,20.10
2010,04,02,16,10,23.80
2010,04,02,16,11,11.80
2010,04,02,16,12,24.80
2010,04,02,16,13,22.80
2010,04,02,16,14,23.60
2010,04,02,16,15,22.40
2010,04,02,16,16,28.40
2010,04,02,16,17,16.30
2010,04,02,16,18,29.20
2010,04,02,16,19,21.90
2010,04,02,16,20,13.80
2010,04,02,16,21,20.80
2010,04,02,16,22,13.50
2010,04,02,16,23,15.60
2010,04,02,16,24,19.30
2010,04,02,16,25,19.00
2010,04,02,16,26,24.30
2010,04,02,16,27,17.10
2010,04,02,16,28,21.50
2010,04,02,16,29,19.50
2010,04,02,16,30,19.80
2010,04,02,16,31,20.70
2010,04,02,16,32,17.50
2010,04,02,16,33,15.20
2010,04,02,16,34,14.90
2010,04,02,16,35,13.10
2010,04,02,16,36,12.80
2010,04,02,16,37,20.00
2010,04,02,16,38,21.00
2010,04,02,16,39,21.40
2010,04,02,16,40,11.50
2010,04,02,16,41,19.70
2010,04,02,16,42,22.50
2010,04,02,16,43,30.30
2010,04,02,16,44,22.30
2010,04,02,16,45,24.10
2010,04,02,16,46,20.80
2010,04,02,16,47,27.40
2010,04,02,16,48,25.80
2010,04,02,16,49,24.50
2010,04,02,16,50,22.20
2010,04,02,16,51,14.70
2010,04,02,16,52,19.00
2010,04,02,16,53,18.80
2010,04,02,16,54,20.70
2010,04,02,16,55,9.50
2010,04,02,16,56,20.50
2010,04,02,16,57,8.60
2010,04,02,16,58,7.30
2010,04,02,16,59,11.30
2010,04,02,17,00,8.50
2010,04,02,17,01,10.40
2010,04,02,17,02,4.20
2010,04,02,17,03,4.00
2010,04,02,17,04,9.30
2010,04,02,17,05,8.00
2010,04,02,17,06,13.30
2010,04,02,17,07,9.80
2010,04,02,17,08,8.00
2010,04,02,17,09,14.30
2010,04,02,17,10,8.80
2010,04,02,17,11,3.10
2010,04,02,17,12,12.30
2010,04,02,17,13,19.70
2010,04,02,17,14,8.40
2010,04,02,17,15,4.10
2010,04,02,17,16,6.80
2010,04,02,17,17,14.90
2010,04,02,17,18,20.10
2010,04,02,17,19,21.20
2010,04,02,17,20,18.30
2010,04,02,17,21,22.50
2010,04,02,17,22,11.40
2010,04,02,17,23,14.20
2010,04,02,17,24,9.40
2010,04,02,17,25,11.80
2010,04,02,17,26,19.40
2010,04,02,17,27,11.20
2010,04,02,17,28,11.40
2010,04,02,17,29,7.30
2010,04,02,17,30,10.40
2010,04,02,17,31,7.70
2010,04,02,17,32,5.30
2010,04,02,17,33,16.90
2010,04,02,17,34,14.40
2010,04,02,17,35,7.80
2010,04,02,17,36,10.80
2010,04,02,17,37,12.90
2010,04,02,17,38,4.20
2010,04,02,17,39,3.00
2010,04,02,17,40,7.00
2010,04,02,17,41,5.90
2010,04,02,17,42,7.00
2010,04,02,17,43,6.10
2010,04,02,17,44,8.30
2010,04,02,17,45,7.00
2010,04,02,17,46,8.60
2010,04,02,17,47,7.10
2010,04,02,17,48,11.80
2010,04,02,17,49,8.00
2010,04,02,17,50,3.30
2010,04,02,17,51,2.00
2010,04,02,17,52,6.90
2010,04,02,17,53,3.40
2010,04,02,17,54,3.00
2010,04,02,17,55,6.20
2010,04,02,17,56,3.50
2010,04,02,17,57,0.30
2010,04,02,17,58,2.40
2010,04,02,17,59,3.30
2010,04,02,18,00,2.70
2010,04,02,18,01,5.30
2010,04,02,18,02,10.00
2010,04,02,18,03,4.30
2010,04,02,18,04,3.50
2010,04,02,18,05,9.60
2010,04,02,18,06,13.00
2010,04,02,18,07,7.90
2010,04,02,18,08,3.50
2010,04,02,18,09,7.20
2010,04,02,18,10,5.80
2010,04,02,18,11,9.90
2010,04,02,18,12,9.70
2010,04,02,18,13,7.50
2010,04,02,18,14,5.90
2010,04,02,18,15,6.40
2010,04,02,18,16,6.00
2010,04,02,18,17,6.40
2010,04,02,18,18,5.30
2010,04,02,18,19,4.60
2010,04,02,18,20,7.10
2010,04,02,18,21,2.50
2010,04,02,18,22,6.00
2010,04,02,18,23,4.60
2010,04,02,18,24,8.10
2010,04,02,18,25,8.30
2010,04,02,18,26,7.10
2010,04,02,18,27,2.30
2010,04,02,18,28,8.10
2010,04,02,18,29,9.90
2010,04,02,18,30,6.20
2010,04,02,18,31,10.70
2010,04,02,18,32,10.00
2010,04,02,18,33,6.80
2010,04,02,18,34,8.50
2010,04,02,18,35,9.50
2010,04,02,18,36,9.90
2010,04,02,18,37,5.40
2010,04,02,18,38,8.10
2010,04,02,18,39,8.50
2010,04,02,18,40,12.10
2010,04,02,18,41,8.00
2010,04,02,18,42,4.40
2010,04,02,18,43,6.20
2010,04,02,18,44,9.10
2010,04,02,18,45,6.80
2010,04,02,18,46,7.90
2010,04,02,18,47,2.80
2010,04,02,18,48,7.30
2010,04,02,18,49,10.40
2010,04,02,18,50,14.10
2010,04,02,18,51,10.60
2010,04,02,18,52,10.90
2010,04,02,18,53,6.80
2010,04,02,18,54,8.90
2010,04,02,18,55,7.50
2010,04,02,18,56,5.40
2010,04,02,18,57,8.10
2010,04,02,18,58,10.80
2010,04,02,18,59,9.70
2010,04,02,19,00,10.40
2010,04,02,19,01,9.30
2010,04,02,19,02,13.20
2010,04,02,19,03,12.00
2010,04,02,19,04,9.90
2010,04,02,19,05,8.60
2010,04,02,19,06,9.70
2010,04,02,19,07,9.10
2010,04,02,19,08,9.60
2010,04,02,19,09,6.90
2010,04,02,19,10,8.30
2010,04,02,19,11,8.90
2010,04,02,19,12,6.70
2010,04,02,19,13,6.60
2010,04,02,19,14,6.40
2010,04,02,19,15,8.40
2010,04,02,19,16,19.50
2010,04,02,19,17,17.30
2010,04,02,19,18,10.40
2010,04,02,19,19,9.50
2010,04,02,19,20,7.90
2010,04,02,19,21,8.90
2010,04,02,19,22,7.90
2010,04,02,19,23,7.00
2010,04,02,19,24,7.00
2010,04,02,19,25,12.40
2010,04,02,19,26,8.60
2010,04,02,19,27,8.90
2010,04,02,19,28,9.50
2010,04,02,19,29,11.50
2010,04,02,19,30,11.40
2010,04,02,19,31,5.70
2010,04,02,19,32,11.70
2010,04,02,19,33,11.70
2010,04,02,19,34,12.60
2010,04,02,19,35,11.40
2010,04,02,19,36,11.40
2010,04,02,19,37,11.40
2010,04,02,19,38,11.50
2010,04,02,19,39,5.70
2010,04,02,19,40,8.60
2010,04,02,19,41,8.50
2010,04,02,19,42,8.70
2010,04,02,19,43,8.90
2010,04,02,19,44,8.10
2010,04,02,19,45,8.10
2010,04,02,19,46,10.10
2010,04,02,19,47,10.30
2010,04,02,19,48,3.70
2010,04,02,19,49,6.40
2010,04,02,19,50,5.40
2010,04,02,19,51,1.50
2010,04,02,19,52,6.00
2010,04,02,19,53,7.60
2010,04,02,19,54,6.60
2010,04,02,19,55,6.10
2010,04,02,19,56,8.00
2010,04,02,19,57,8.30
2010,04,02,19,58,12.50
2010,04,02,19,59,8.40
2010,04,02,20,00,8.90
2010,04,02,20,01,11.60
2010,04,02,20,02,6.30
2010,04,02,20,03,8.80
2010,04,02,20,04,8.00
2010,04,02,20,05,11.30
2010,04,02,20,06,16.10
2010,04,02,20,07,13.70
2010,04,02,20,08,9.40
2010,04,02,20,09,8.60
2010,04,02,20,10,4.40
2010,04,02,20,11,7.70
2010,04,02,20,12,14.00
2010,04,02,20,13,6.90
2010,04,02,20,14,3.30
2010,04,02,20,15,7.00
2010,04,02,20,16,5.10
2010,04,02,20,17,6.20
2010,04,02,20,18,7.70
2010,04,02,20,19,5.80
2010,04,02,20,20,3.60
2010,04,02,20,21,8.10
2010,04,02,20,22,6.90
2010,04,02,20,23,6.80
2010,04,02,20,24,14.60
2010,04,02,20,25,10.90
2010,04,02,20,26,7.40
2010,04,02,20,27,6.80
2010,04,02,20,28,3.50
2010,04,02,20,29,7.00
2010,04,02,20,30,8.70
2010,04,02,20,31,10.30
2010,04,02,20,32,6.90
2010,04,02,20,33,6.60
2010,04,02,20,34,6.80
2010,04,02,20,35,4.60
2010,04,02,20,36,1.20
2010,04,02,20,37,1.20
2010,04,02,20,38,3.20
2010,04,02,20,39,1.60
2010,04,02,20,40,3.50
2010,04,02,20,41,2.50
2010,04,02,20,42,8.20
2010,04,02,20,43,5.70
2010,04,02,20,44,3.70
2010,04,02,20,45,8.20
2010,04,02,20,46,10.40
2010,04,02,20,47,7.50
2010,04,02,20,48,5.30
2010,04,02,20,49,9.30
2010,04,02,20,50,12.50
2010,04,02,20,51,10.40
2010,04,02,20,52,9.60
2010,04,02,20,53,8.30
2010,04,02,20,54,9.30
2010,04,02,20,55,11.50
2010,04,02,20,56,17.10
2010,04,02,20,57,14.40
2010,04,02,20,58,8.60
2010,04,02,20,59,7.60
2010,04,02,21,00,11.30
2010,04,02,21,01,12.20
2010,04,02,21,02,7.40
2010,04,02,21,03,13.90
2010,04,02,21,04,12.20
2010,04,02,21,05,12.70
2010,04,02,21,06,13.50
2010,04,02,21,07,11.30
2010,04,02,21,08,10.60
2010,04,02,21,09,14.60
2010,04,02,21,10,15.60
2010,04,02,21,11,4.80
2010,04,02,21,12,11.50
2010,04,02,21,13,6.90
2010,04,02,21,14,8.60
2010,04,02,21,15,11.50
2010,04,02,21,16,13.40
2010,04,02,21,17,10.60
2010,04,02,21,18,12.60
2010,04,02,21,19,6.00
2010,04,02,21,20,6.80
2010,04,02,21,21,9.80
2010,04,02,21,22,6.70
2010,04,02,21,23,10.90
2010,04,02,21,24,12.80
2010,04,02,21,25,8.40
2010,04,02,21,26,7.60
2010,04,02,21,27,8.80
2010,04,02,21,28,13.00
2010,04,02,21,29,12.00
2010,04,02,21,30,8.90
2010,04,02,21,31,8.90
2010,04,02,21,32,10.90
2010,04,02,21,33,8.80
2010,04,02,21,34,7.80
2010,04,02,21,35,10.20
2010,04,02,21,36,6.00
2010,04,02,21,37,11.20
2010,04,02,21,38,8.50
2010,04,02,21,39,5.60
2010,04,02,21,40,5.30
2010,04,02,21,41,4.10
2010,04,02,21,42,1.10
2010,04,02,21,43,5.30
2010,04,02,21,44,8.90
2010,04,02,21,45,5.50
2010,04,02,21,46,6.60